• In Uzbekistan
  • List of Countries
  • For 7 days
  • Water Temperature
  • Satellite Maps
  • Weather Map
  • Weather Widgets
  • user-avatar
    Login

    Hourly Weather Tworylne

    Today, 19 July, Thursday

    Time Temperature Precipitation Wind Pressure Humidity
    00:00 +18°C° 0.1 mm 2 mps 715 mmHg 98%
    01:00 +18°C° 0 mm 2 mps 715 mmHg 98%
    02:00 +18°C° 0.1 mm 2 mps 716 mmHg 98%
    03:00 +18°C° 0.1 mm 2 mps 716 mmHg 98%
    04:00 +18°C° 0.1 mm 2 mps 716 mmHg 98%
    05:00 +19°C° 0.1 mm 3 mps 716 mmHg 97%
    06:00 +19°C° 0.1 mm 3 mps 717 mmHg 96%
    07:00 +20°C° 0.1 mm 3 mps 717 mmHg 95%
    08:00 +20°C° 0.1 mm 3 mps 717 mmHg 94%
    09:00 +20°C° 0.1 mm 3 mps 717 mmHg 93%
    10:00 +20°C° 0.1 mm 3 mps 717 mmHg 92%
    11:00 +20°C° 0.1 mm 4 mps 718 mmHg 90%
    12:00 +21°C° 0.1 mm 4 mps 718 mmHg 89%
    13:00 +21°C° 0.1 mm 4 mps 718 mmHg 88%
    14:00 +21°C° 0.1 mm 4 mps 718 mmHg 87%
    15:00 +21°C° 0.1 mm 4 mps 718 mmHg 87%
    16:00 +21°C° 0.1 mm 4 mps 718 mmHg 86%
    17:00 +20°C° 0.1 mm 3 mps 718 mmHg 88%
    18:00 +20°C° 0.1 mm 3 mps 718 mmHg 90%
    19:00 +19°C° 0.1 mm 3 mps 718 mmHg 92%
    20:00 +19°C° 0.1 mm 3 mps 718 mmHg 94%
    21:00 +18°C° 0.1 mm 3 mps 718 mmHg 95%
    22:00 +18°C° 0.1 mm 3 mps 718 mmHg 96%
    23:00 +18°C° 0 mm 2 mps 718 mmHg 97%

    Tomorrow, 20 July, Friday

    Time Temperature Precipitation Wind Pressure Humidity
    00:00 +17°C° 0 mm 2 mps 718 mmHg 97%
    01:00 +17°C° 0 mm 2 mps 718 mmHg 97%
    02:00 +17°C° 0 mm 2 mps 718 mmHg 97%
    03:00 +17°C° 0 mm 2 mps 718 mmHg 97%
    04:00 +17°C° 0 mm 2 mps 718 mmHg 97%
    05:00 +17°C° 0.2 mm 2 mps 718 mmHg 95%
    06:00 +18°C° 0.2 mm 3 mps 719 mmHg 94%
    07:00 +18°C° 0.2 mm 3 mps 719 mmHg 92%
    08:00 +19°C° 0.3 mm 3 mps 719 mmHg 91%
    09:00 +19°C° 0.3 mm 3 mps 719 mmHg 91%
    10:00 +19°C° 0.3 mm 3 mps 719 mmHg 90%
    11:00 +19°C° 0.1 mm 3 mps 719 mmHg 88%
    12:00 +20°C° 0.1 mm 3 mps 719 mmHg 85%
    13:00 +20°C° 0.1 mm 3 mps 719 mmHg 83%
    14:00 +21°C° 0 mm 4 mps 719 mmHg 78%
    15:00 +22°C° 0 mm 4 mps 719 mmHg 72%
    16:00 +23°C° 0 mm 4 mps 719 mmHg 67%
    17:00 +22°C° 0 mm 3 mps 719 mmHg 74%
    18:00 +21°C° 0 mm 3 mps 719 mmHg 80%
    19:00 +19°C° 0 mm 2 mps 719 mmHg 86%
    20:00 +18°C° 0 mm 2 mps 719 mmHg 89%
    21:00 +17°C° 0 mm 2 mps 719 mmHg 91%
    22:00 +16°C° 0 mm 2 mps 719 mmHg 94%
    23:00 +16°C° 0 mm 1 mps 719 mmHg 95%

    Day after tomorrow, 21 July, Saturday

    Time Temperature Precipitation Wind Pressure Humidity
    00:00 +16°C° 0 mm 1 mps 719 mmHg 95%
    01:00 +15°C° 0 mm 1 mps 719 mmHg 96%
    02:00 +15°C° 0 mm 1 mps 719 mmHg 96%
    03:00 +15°C° 0 mm 1 mps 719 mmHg 96%
    04:00 +14°C° 0 mm 1 mps 719 mmHg 96%
    05:00 +16°C° 0 mm 1 mps 720 mmHg 91%
    06:00 +18°C° 0 mm 2 mps 720 mmHg 86%
    07:00 +19°C° 0 mm 2 mps 720 mmHg 81%
    08:00 +21°C° 0 mm 2 mps 720 mmHg 74%
    09:00 +23°C° 0 mm 2 mps 720 mmHg 68%
    10:00 +25°C° 0 mm 2 mps 721 mmHg 61%
    11:00 +25°C° 0.1 mm 2 mps 720 mmHg 59%
    12:00 +26°C° 0.1 mm 2 mps 720 mmHg 56%
    13:00 +27°C° 0.1 mm 2 mps 720 mmHg 54%
    14:00 +26°C° 0.1 mm 2 mps 720 mmHg 56%
    15:00 +26°C° 0.1 mm 2 mps 720 mmHg 58%
    16:00 +26°C° 0.1 mm 2 mps 720 mmHg 59%
    17:00 +24°C° 0.1 mm 2 mps 720 mmHg 68%
    18:00 +22°C° 0.1 mm 1 mps 719 mmHg 77%
    19:00 +21°C° 0.1 mm 1 mps 719 mmHg 85%
    20:00 +20°C° 0 mm 1 mps 719 mmHg 87%
    21:00 +19°C° 0 mm 1 mps 719 mmHg 89%
    22:00 +18°C° 0 mm 1 mps 719 mmHg 91%
    23:00 +18°C° 0 mm 1 mps 719 mmHg 91%

    22 July, Sunday

    Time Temperature Precipitation Wind Pressure Humidity
    00:00 +16°C° 0 mm 1 mps 719 mmHg 91%
    01:00 +16°C° 0 mm 1 mps 719 mmHg 92%
    02:00 +16°C° 0 mm 1 mps 719 mmHg 91%
    03:00 +16°C° 0 mm 1 mps 719 mmHg 91%
    04:00 +16°C° 0 mm 1 mps 719 mmHg 91%
    05:00 +17°C° 0 mm 0 mps 719 mmHg 87%
    06:00 +18°C° 0 mm 0 mps 719 mmHg 82%
    07:00 +20°C° 0 mm 0 mps 719 mmHg 78%
    08:00 +21°C° 0.6 mm 0 mps 719 mmHg 75%
    09:00 +24°C° 0.6 mm 1 mps 719 mmHg 73%
    10:00 +24°C° 0.6 mm 1 mps 718 mmHg 71%
    11:00 +24°C° 0.8 mm 1 mps 718 mmHg 72%
    12:00 +25°C° 0.8 mm 1 mps 718 mmHg 73%
    13:00 +25°C° 0.8 mm 1 mps 718 mmHg 74%
    14:00 +25°C° 0.8 mm 1 mps 717 mmHg 76%
    15:00 +24°C° 0.8 mm 1 mps 717 mmHg 78%
    16:00 +24°C° 0.8 mm 1 mps 717 mmHg 80%
    17:00 +23°C° 0.5 mm 1 mps 717 mmHg 83%
    18:00 +22°C° 0.5 mm 1 mps 717 mmHg 86%
    19:00 +20°C° 0.5 mm 1 mps 717 mmHg 89%
    20:00 +20°C° 0 mm 1 mps 717 mmHg 89%
    21:00 +19°C° 0 mm 1 mps 717 mmHg 90%
    22:00 +18°C° 0 mm 1 mps 717 mmHg 91%
    23:00 +18°C° 0 mm 1 mps 716 mmHg 91%

    23 July, Monday

    Time Temperature Precipitation Wind Pressure Humidity
    00:00 +18°C° 0 mm 1 mps 716 mmHg 92%
    01:00 +16°C° 0 mm 1 mps 716 mmHg 92%
    02:00 +16°C° 0 mm 1 mps 716 mmHg 92%
    03:00 +16°C° 0 mm 2 mps 716 mmHg 92%
    04:00 +15°C° 0 mm 2 mps 716 mmHg 92%
    05:00 +16°C° 0 mm 2 mps 717 mmHg 90%
    06:00 +18°C° 0 mm 2 mps 717 mmHg 87%
    07:00 +19°C° 0 mm 2 mps 717 mmHg 85%
    08:00 +20°C° 0.1 mm 3 mps 717 mmHg 80%
    09:00 +21°C° 0.1 mm 3 mps 717 mmHg 76%
    10:00 +22°C° 0.1 mm 3 mps 717 mmHg 71%
    11:00 +23°C° 0.1 mm 4 mps 717 mmHg 69%
    12:00 +23°C° 0.1 mm 4 mps 717 mmHg 67%
    13:00 +25°C° 0.1 mm 4 mps 717 mmHg 65%
    14:00 +23°C° 0.5 mm 4 mps 717 mmHg 71%
    15:00 +23°C° 0.5 mm 4 mps 717 mmHg 76%
    16:00 +22°C° 0.5 mm 4 mps 717 mmHg 82%
    17:00 +21°C° 0.3 mm 3 mps 717 mmHg 85%
    18:00 +20°C° 0.3 mm 3 mps 718 mmHg 87%
    19:00 +19°C° 0.3 mm 2 mps 718 mmHg 90%
    20:00 +19°C° 0.1 mm 2 mps 718 mmHg 90%
    21:00 +18°C° 0.1 mm 2 mps 718 mmHg 91%
    22:00 +17°C° 0.1 mm 2 mps 718 mmHg 91%
    23:00 +17°C° 0 mm 2 mps 718 mmHg 92%

    24 July, Tuesday

    Time Temperature Precipitation Wind Pressure Humidity
    00:00 +16°C° 0 mm 2 mps 718 mmHg 92%
    01:00 +16°C° 0 mm 2 mps 718 mmHg 93%
    02:00 +16°C° 0 mm 2 mps 719 mmHg 93%
    03:00 +16°C° 0 mm 2 mps 719 mmHg 93%
    04:00 +15°C° 0 mm 2 mps 719 mmHg 94%
    05:00 +16°C° 0 mm 2 mps 719 mmHg 92%
    06:00 +17°C° 0 mm 2 mps 720 mmHg 90%
    07:00 +18°C° 0 mm 2 mps 720 mmHg 88%
    08:00 +20°C° 0 mm 3 mps 720 mmHg 82%
    09:00 +21°C° 0 mm 3 mps 720 mmHg 76%
    10:00 +22°C° 0 mm 3 mps 720 mmHg 70%
    11:00 +24°C° 0.2 mm 3 mps 720 mmHg 68%
    12:00 +25°C° 0.2 mm 3 mps 720 mmHg 65%
    13:00 +25°C° 0.2 mm 3 mps 720 mmHg 63%
    14:00 +25°C° 0.3 mm 3 mps 720 mmHg 64%
    15:00 +25°C° 0.3 mm 3 mps 720 mmHg 66%
    16:00 +24°C° 0.3 mm 3 mps 720 mmHg 68%
    17:00 +23°C° 0.1 mm 2 mps 720 mmHg 74%
    18:00 +20°C° 0.1 mm 2 mps 720 mmHg 81%
    19:00 +20°C° 0.1 mm 1 mps 720 mmHg 87%
    20:00 +19°C° 0 mm 1 mps 720 mmHg 89%
    21:00 +18°C° 0 mm 1 mps 720 mmHg 91%
    22:00 +16°C° 0 mm 1 mps 720 mmHg 93%
    23:00 +16°C° 0 mm 1 mps 720 mmHg 93%
    Show more